Torna al catalogo

STARLINK-36790

AttivoComunicazioniVLEO
NORAD 68095·PAYLOAD·🇺🇸 United States

Lanciato Mar 4, 2026 da Vandenberg Space Force Base

Loading…

Prossimi Passaggi (prossime 24 ore)

TLE

AggiornatoSource: CelesTrak SupGP

Epoca: Sep 15, 2026, 02:58 UTC

1 68095C 26042AC  26258.12409722  .00048241  00000+0  14254-2 0  2586
2 68095  53.1600  14.6751 0001199  94.3331  16.9996 15.34363450    17

Traccia STARLINK-36790 in tempo reale con AllMySat

Download on the App Store